User: anonymous   Login
Location: Unspecified
(0.0000°N, 0.0000°E)
Time: 09:38:29
(UTC+00:00)
Language:

COMPASS 1 - Orbit

View from above orbital plane
View from above orbital plane
View from above satellite
View from above satellite

Ground track
Ground track

The orbit data is extracted from the following two-line orbital elements,

1 32787U 08021E   22272.91885803  .00004362  00000-0  38880-3 0  9990
2 32787  97.5737 251.4290 0012379 147.4456 212.7531 14.96448594783679
Epoch (UTC): 29 September 2022 22:03:09
Eccentricity: 0.0012379
inclination: 97.5737°
perigee height: 569 km
apogee height: 586 km
right ascension of ascending node: 251.4290°
argument of perigee: 147.4456°
revolutions per day: 14.96448594
mean anomaly at epoch: 212.7531°
orbit number at epoch: 78367

The dashed part of the orbit path shows where the satellite is in the earth's shadow,  

DLR